Wellsville, NY

1:51 PM EDT on July 25, 2017 (GMT -0400)
Wellsville Municipal-Tarantine

Weather History for KELZ - April, 2013

Change the Weather History Date:

Sunday, April 7, 2013

  Actual Average (KDSV) Record (KDSV)
Temperature  
Mean Temperature 54 °F -  
Max Temperature 68 °F 50 °F 83 °F (1991)
Min Temperature 41 °F 29 °F 12 °F (1972)
Degree Days  
Heating Degree Days 11    
Growing Degree Days 4 (Base 50)    
Moisture  
Dew Point 27 °F    
Average Humidity 40    
Maximum Humidity 79    
Minimum Humidity 28    
Precipitation  
Precipitation 0.00 in - - ()
Sea Level Pressure  
Sea Level Pressure 29.92 in    
Wind  
Wind Speed 15 mph (SSW)    
Max Wind Speed 22 mph    
Max Gust Speed 37 mph    
Visibility 10 miles    
Events      
Averages and records for this station are not official NWS values.
T = Trace of Precipitation, MM = Missing Value Source: NWS Daily Summary

Daily Weather History Graph

Daily Weather History Graph

Search for Another Location

Airport or City:

Trip Planner

Search our weather history database for the weather conditions in past years. The results will help you decide how hot, cold, wet, or windy it might be!

Date:

Astronomy

Apr. 07, 2013 Rise Set
Actual Time 6:44 AM EDT 7:44 PM EDT
Civil Twilight 6:15 AM EDT 8:13 PM EDT
Nautical Twilight 5:41 AM EDT 8:47 PM EDT
Astronomical Twilight 5:06 AM EDT 9:23 PM EDT
Moon 5:03 AM EDT (4/7) 5:12 PM EDT (4/7)
Length of Visible Light 13h 57m
Length of Day
13h 00m
Waning Crescent, 8% of the Moon is Illuminated
Apr 7
Waning Crescent
Apr 10
New
Apr 18
First Quarter
Apr 25
Full
May 2
Last Quarter

Hourly Weather History & Observations

Time (EDT) Temp. Windchill Dew Point Humidity Pressure Visibility Wind Dir Wind Speed Gust Speed Precip Events Conditions
12:56 AM 43.0 °F 35.4 °F 14.0 °F 31% 30.08 in 10.0 mi South 16.1 mph 26.5 mph N/A   Mostly Cloudy
1:56 AM 43.0 °F 35.7 °F 15.1 °F 32% 30.04 in 10.0 mi South 15.0 mph 32.2 mph N/A   Overcast
2:56 AM 43.0 °F 37.2 °F 15.1 °F 32% 30.02 in 10.0 mi South 10.4 mph 20.7 mph N/A   Overcast
3:56 AM 43.0 °F 36.0 °F 16.0 °F 34% 29.99 in 10.0 mi South 13.8 mph 21.9 mph N/A   Clear
4:56 AM 43.0 °F 36.0 °F 17.1 °F 35% 29.97 in 10.0 mi SSE 13.8 mph 27.6 mph N/A   Partly Cloudy
5:56 AM 42.1 °F 34.9 °F 18.0 °F 38% 29.97 in 10.0 mi South 13.8 mph 20.7 mph N/A   Clear
6:56 AM 42.1 °F 34.2 °F 19.0 °F 40% 29.96 in 10.0 mi South 16.1 mph 24.2 mph N/A   Clear
7:56 AM 44.1 °F 38.6 °F 21.0 °F 40% 29.94 in 10.0 mi South 10.4 mph 24.2 mph N/A   Clear
8:56 AM 48.0 °F - 23.0 °F 37% 29.91 in 10.0 mi South 11.5 mph 28.8 mph N/A   Clear
9:56 AM 52.0 °F - 25.0 °F 35% 29.88 in 10.0 mi South 12.7 mph 27.6 mph N/A   Clear
10:56 AM 55.9 °F - 27.0 °F 33% 29.86 in 10.0 mi SSW 18.4 mph 36.8 mph N/A   Clear
11:56 AM 59.0 °F - 28.0 °F 31% 29.83 in 10.0 mi SSW 19.6 mph 29.9 mph N/A   Partly Cloudy
12:56 PM 61.0 °F - 30.0 °F 31% 29.83 in 10.0 mi SSW 16.1 mph 31.1 mph N/A   Overcast
1:56 PM 63.0 °F - 35.1 °F 35% 29.83 in 10.0 mi SW 15.0 mph 31.1 mph N/A   Clear
2:56 PM 64.0 °F - 35.1 °F 34% 29.82 in 10.0 mi SW 20.7 mph 35.7 mph N/A   Scattered Clouds
3:56 PM 64.9 °F - 34.0 °F 32% 29.81 in 10.0 mi WSW 18.4 mph 32.2 mph N/A   Mostly Cloudy
4:56 PM 66.9 °F - 33.1 °F 28% 29.82 in 10.0 mi WSW 21.9 mph 36.8 mph N/A   Scattered Clouds
5:56 PM 64.9 °F - 34.0 °F 32% 29.84 in 10.0 mi WSW 16.1 mph 26.5 mph N/A   Overcast
6:56 PM 60.1 °F - 41.0 °F 49% 29.89 in 10.0 mi WNW 19.6 mph 27.6 mph N/A   Scattered Clouds
7:56 PM 54.0 °F - 39.9 °F 59% 29.93 in 10.0 mi WNW 12.7 mph - N/A   Partly Cloudy
10:56 PM 44.1 °F 39.5 °F 36.0 °F 73% 30.02 in 10.0 mi NW 8.1 mph - N/A   Clear
11:56 PM 41.0 °F 35.2 °F 35.1 °F 79% 30.03 in 10.0 mi NNW 9.2 mph - N/A   Clear